Weather History for KRGK - January, 2013

Change the Weather History Date:

Monday, January 21, 2013

  Actual Average (KMSP) Record (KMSP)
Temperature  
Mean Temperature -3 °F 15 °F  
Max Temperature 1 °F 24 °F 48 °F (1900)
Min Temperature -7 °F 7 °F -41 °F (1888)
Degree Days  
Heating Degree Days 68 50  
Month to date heating degree days 1044  
Since 1 July heating degree days 4067  
Cooling Degree Days 0 0  
Month to date cooling degree days 0  
Year to date cooling degree days 0  
Moisture  
Dew Point -14 °F    
Average Humidity 62    
Maximum Humidity 71    
Minimum Humidity 50    
Precipitation  
Precipitation 0.00 in 0.03 in 0.81 in (1917)
Month to date precipitation 0.63  
Year to date precipitation 0.63  
Snow  
Snow 0.00 in 0.40 in 15.80 in (1917)
Month to date snowfall 8.4  
Since 1 July snowfall 30.2  
Snow Depth -    
Sea Level Pressure  
Sea Level Pressure 30.28 in    
Wind  
Wind Speed 10 mph (NW)    
Max Wind Speed 15 mph    
Max Gust Speed 23 mph    
Visibility 8 miles    
Events      
T = Trace of Precipitation, MM = Missing Value Source: NWS Daily Summary

Daily Weather History Graph

Daily Weather History Graph

Search for Another Location

Airport or City:

Trip Planner

Search our weather history database for the weather conditions in past years. The results will help you decide how hot, cold, wet, or windy it might be!

Date:

Astronomy

Jan. 21, 2013 Rise Set
Actual Time 7:39 AM CST 5:04 PM CST
Civil Twilight 7:07 AM CST 5:36 PM CST
Nautical Twilight 6:31 AM CST 6:11 PM CST
Astronomical Twilight 5:56 AM CST 6:46 PM CST
Moon 12:43 PM CST (1/21) 3:08 AM CST (1/21)
Length of Visible Light 10h 28m
Length of Day
9h 24m
Waxing Gibbous, 75% of the Moon is Illuminated
Jan 21
Waxing Gibbous
Jan 26
Full
Feb 3
Last Quarter
Feb 10
New
Feb 17
First Quarter

Hourly Weather History & Observations

Time (CST) Temp. Windchill Dew Point Humidity Pressure Visibility Wind Dir Wind Speed Gust Speed Precip Events Conditions
12:15 AM 1.4 °F -12.5 °F -7.6 °F 66% 30.24 in 7.0 mi NW 8.1 mph 16.1 mph N/A   Overcast
12:35 AM 1.4 °F -14.5 °F -9.4 °F 61% 30.24 in 10.0 mi NW 10.4 mph - N/A   Scattered Clouds
1:35 AM -0.4 °F -17.6 °F -11.2 °F 60% 30.24 in 10.0 mi NW 11.5 mph 17.3 mph N/A   Clear
1:55 AM -0.4 °F -13.4 °F -11.2 °F 60% 30.24 in 10.0 mi NW 6.9 mph - N/A   Clear
2:15 AM -2.2 °F -20.7 °F -11.2 °F 66% 30.25 in 10.0 mi NW 12.7 mph - N/A   Scattered Clouds
2:35 AM -2.2 °F -16.8 °F -11.2 °F 66% 30.26 in 10.0 mi NW 8.1 mph - N/A   Mostly Cloudy
2:55 AM -2.2 °F -15.6 °F -11.2 °F 66% 30.26 in 5.0 mi NNW 6.9 mph - N/A   Haze
3:15 AM -2.2 °F -16.8 °F -11.2 °F 66% 30.26 in 4.0 mi NW 8.1 mph 18.4 mph N/A   Haze
3:35 AM -2.2 °F -20.7 °F -11.2 °F 66% 30.26 in 10.0 mi NW 12.7 mph 17.3 mph N/A   Mostly Cloudy
3:55 AM -2.2 °F -18.9 °F -11.2 °F 66% 30.25 in 10.0 mi NW 10.4 mph 16.1 mph N/A   Scattered Clouds
4:35 AM -2.2 °F -15.6 °F -9.4 °F 71% 30.25 in 3.0 mi NW 6.9 mph - N/A   Haze
4:55 AM -2.2 °F -19.9 °F -11.2 °F 66% 30.25 in 3.0 mi WNW 11.5 mph 16.1 mph N/A   Haze
5:15 AM -4.0 °F -23.0 °F -14.8 °F 60% 30.25 in 10.0 mi NW 12.7 mph 19.6 mph N/A   Mostly Cloudy
5:35 AM -5.8 °F -25.2 °F -18.4 °F 55% 30.26 in 10.0 mi NW 12.7 mph 17.3 mph N/A   Clear
5:55 AM -5.8 °F -21.2 °F -16.6 °F 60% 30.26 in 10.0 mi NW 8.1 mph - N/A   Mostly Cloudy
6:15 AM -5.8 °F -24.4 °F -13.0 °F 71% 30.26 in 4.0 mi WNW 11.5 mph 17.3 mph N/A   Haze
6:35 AM -5.8 °F -24.4 °F -14.8 °F 65% 30.27 in 5.0 mi WNW 11.5 mph 19.6 mph N/A   Haze
6:55 AM -7.6 °F -28.3 °F -14.8 °F 71% 30.27 in 4.0 mi WNW 13.8 mph 20.7 mph N/A   Haze
7:15 AM -7.6 °F -25.7 °F -14.8 °F 71% 30.28 in 7.0 mi WNW 10.4 mph 15.0 mph N/A   Mostly Cloudy
7:35 AM -7.6 °F -27.5 °F -14.8 °F 71% 30.28 in 4.0 mi WNW 12.7 mph - N/A   Haze
7:55 AM -7.6 °F -25.7 °F -18.4 °F 59% 30.28 in 10.0 mi NW 10.4 mph 18.4 mph N/A   Mostly Cloudy
8:15 AM -7.6 °F -26.6 °F -18.4 °F 59% 30.29 in 10.0 mi NW 11.5 mph 17.3 mph N/A   Clear
8:35 AM -7.6 °F -29.1 °F -18.4 °F 59% 30.30 in 10.0 mi NW 15.0 mph 18.4 mph N/A   Clear
8:56 AM -7.6 °F -24.6 °F -18.4 °F 59% 30.30 in 7.0 mi NW 9.2 mph 17.3 mph N/A   Scattered Clouds
9:15 AM -7.6 °F -28.3 °F -18.4 °F 59% 30.31 in 10.0 mi NNW 13.8 mph 23.0 mph N/A   Scattered Clouds
9:35 AM -5.8 °F -22.4 °F -18.4 °F 55% 30.31 in 10.0 mi NW 9.2 mph 18.4 mph N/A   Clear
9:55 AM -5.8 °F -25.2 °F -18.4 °F 55% 30.32 in 10.0 mi NW 12.7 mph 18.4 mph N/A   Clear
10:15 AM -5.8 °F -23.4 °F -16.6 °F 60% 30.32 in 7.0 mi NW 10.4 mph - N/A   Scattered Clouds
10:35 AM -5.8 °F -24.4 °F -16.6 °F 60% 30.32 in 7.0 mi WNW 11.5 mph 17.3 mph N/A   Mostly Cloudy
10:55 AM -5.8 °F -23.4 °F -14.8 °F 65% 30.33 in 3.0 mi WNW 10.4 mph - N/A   Haze
11:15 AM -5.8 °F -24.4 °F -14.8 °F 65% 30.32 in 5.0 mi WNW 11.5 mph 18.4 mph N/A   Haze
11:35 AM -4.0 °F -23.0 °F -16.6 °F 55% 30.31 in 5.0 mi WNW 12.7 mph 18.4 mph N/A   Haze
11:55 AM -2.2 °F -19.9 °F -16.6 °F 50% 30.30 in 7.0 mi WNW 11.5 mph 18.4 mph N/A   Overcast
12:15 PM -2.2 °F -20.7 °F -14.8 °F 55% 30.29 in 7.0 mi WNW 12.7 mph 20.7 mph N/A   Overcast
12:35 PM -2.2 °F -22.2 °F -16.6 °F 50% 30.28 in 10.0 mi West 15.0 mph 18.4 mph N/A   Mostly Cloudy
12:56 PM -2.2 °F -22.2 °F -14.8 °F 55% 30.27 in 10.0 mi West 15.0 mph - N/A   Overcast
1:15 PM -2.2 °F -20.7 °F -14.8 °F 55% 30.27 in 5.0 mi NW 12.7 mph - N/A   Haze
1:35 PM -2.2 °F -19.9 °F -14.8 °F 55% 30.27 in 7.0 mi West 11.5 mph 16.1 mph N/A   Mostly Cloudy
1:55 PM -2.2 °F -18.9 °F -14.8 °F 55% 30.26 in 7.0 mi WNW 10.4 mph - N/A   Mostly Cloudy
2:15 PM -2.2 °F -18.0 °F -14.8 °F 55% 30.26 in 10.0 mi WNW 9.2 mph 16.1 mph N/A   Mostly Cloudy
2:35 PM -2.2 °F -21.5 °F -14.8 °F 55% 30.26 in 10.0 mi WNW 13.8 mph 18.4 mph N/A   Scattered Clouds
2:55 PM -2.2 °F -21.5 °F -14.8 °F 55% 30.26 in 10.0 mi WNW 13.8 mph 19.6 mph N/A   Scattered Clouds
3:15 PM -2.2 °F -20.7 °F -14.8 °F 55% 30.26 in 10.0 mi WNW 12.7 mph - N/A   Scattered Clouds
3:35 PM -2.2 °F -20.7 °F -14.8 °F 55% 30.25 in 10.0 mi WNW 12.7 mph 17.3 mph N/A   Scattered Clouds
3:55 PM -2.2 °F -18.0 °F -14.8 °F 55% 30.26 in 10.0 mi WNW 9.2 mph 17.3 mph N/A   Clear
4:15 PM -2.2 °F -21.5 °F -14.8 °F 55% 30.26 in 10.0 mi WNW 13.8 mph 19.6 mph N/A   Scattered Clouds
4:35 PM -2.2 °F -19.9 °F -14.8 °F 55% 30.26 in 10.0 mi WNW 11.5 mph 17.3 mph N/A   Scattered Clouds
4:55 PM -2.2 °F -19.9 °F -14.8 °F 55% 30.25 in 10.0 mi WNW 11.5 mph 16.1 mph N/A   Clear
5:15 PM -4.0 °F -19.0 °F -14.8 °F 60% 30.26 in 10.0 mi WNW 8.1 mph - N/A   Clear
5:35 PM -4.0 °F -23.0 °F -14.8 °F 60% 30.27 in 10.0 mi WNW 12.7 mph 16.1 mph N/A   Clear
5:55 PM -4.0 °F -23.0 °F -14.8 °F 60% 30.27 in 10.0 mi WNW 12.7 mph 17.3 mph N/A   Clear
6:15 PM -4.0 °F -21.2 °F -14.8 °F 60% 30.27 in 10.0 mi WNW 10.4 mph 18.4 mph N/A   Scattered Clouds
6:55 PM -4.0 °F -23.0 °F -14.8 °F 60% 30.27 in 10.0 mi NW 12.7 mph 20.7 mph N/A   Scattered Clouds
7:15 PM -4.0 °F -24.5 °F -13.0 °F 65% 30.28 in 10.0 mi WNW 15.0 mph - N/A   Clear
7:35 PM -4.0 °F -22.1 °F -13.0 °F 65% 30.28 in 7.0 mi WNW 11.5 mph 16.1 mph N/A   Scattered Clouds
7:55 PM -5.8 °F -22.4 °F -14.8 °F 65% 30.28 in 10.0 mi WNW 9.2 mph - N/A   Clear
8:15 PM -5.8 °F -22.4 °F -14.8 °F 65% 30.28 in 10.0 mi WNW 9.2 mph - N/A   Clear
8:35 PM -5.8 °F -21.2 °F -13.0 °F 71% 30.28 in 10.0 mi WNW 8.1 mph - N/A   Clear
8:56 PM -5.8 °F -19.9 °F -13.0 °F 71% 30.28 in 10.0 mi WNW 6.9 mph - N/A   Clear
9:15 PM -5.8 °F -21.2 °F -13.0 °F 71% 30.29 in 10.0 mi WNW 8.1 mph - N/A   Clear
9:35 PM -5.8 °F -19.9 °F -14.8 °F 65% 30.29 in 10.0 mi NW 6.9 mph - N/A   Clear
9:55 PM -5.8 °F -18.4 °F -14.8 °F 65% 30.29 in 10.0 mi NW 5.8 mph - N/A   Clear
10:15 PM -5.8 °F -18.4 °F -14.8 °F 65% 30.29 in 10.0 mi WNW 5.8 mph - N/A   Clear
10:35 PM -5.8 °F -19.9 °F -14.8 °F 65% 30.29 in 10.0 mi WNW 6.9 mph - N/A   Clear
10:55 PM -5.8 °F -16.7 °F -14.8 °F 65% 30.29 in 10.0 mi NW 4.6 mph - N/A   Clear
11:15 PM -5.8 °F - -13.0 °F 71% 30.28 in 10.0 mi Calm Calm - N/A   Clear
11:35 PM -5.8 °F - -13.0 °F 71% 30.28 in 10.0 mi Calm Calm - N/A   Clear
11:55 PM -5.8 °F - -13.0 °F 71% 30.28 in 10.0 mi Calm Calm - N/A   Clear